Content
SEND FEEDBACK

Daily
Averages
Monthly
Summary
Turkmenistan

ASHGABAT, TURKMENISTAN


Home > Asia > Turkmenistan
Elevation: 775 feet     Latitude: 37 58N     Longitude: 058 20E

WEATHER
 
SELECT A DAY
Number of Records: 174,855;   Date Range: 3/15/97 - 4/16/14
 
SHARE

PRINT THIS DATA

[ ← Previous Day ]
WEATHER ALMANAC - OCTOBER 19, 2013
[ Next Day → ]
[ °C ]   °F
Weather ElementAverageHighLow
Temperature73.3 °F93.2 °F (4:00 pm)57.2 °F (4:00 am)
Dewpoint36.7 °F46 °F (8:00 pm)28.4 °F (10:00 am)
Humidity28.5 %51 % (3:00 am)7 % (2:00 pm)
Barometer29.87 in29.96 in (2:00 am)29.79 in (5:00 pm)
Wind Speed6.2 mph13.4 mph (2:00 pm)
Weather ElementAverage
Visibility5.7 mi
Wind DirectionESE (119.7 °)

Weather ElementTotal
Precipitation---
Cooling Degree Days10.2 (Base 65)
Growing Degree Days25.2 (Base 50)
Averaged from 33 records on October 19, 2013
WEATHER CONDITIONS BREAKOUT
WIND DIRECTION BREAKOUT
WEATHER BY HOUR - OCTOBER 19, 2013
[ °C ]   °F
Local TimeTemperatureDewpointHumidityBarometerVisibilityWind DirectionWind SpeedGust SpeedPrecipitationEventsConditions
1:00 AM60.8 °F39.2 °F45 %29.95 in5.0 miSE (140°)2.2 mphClear
2:00 AM59.0 °F41.0 °F40 %29.96 in6.0 miSE (140°)2.2 mph
2:00 AM59.0 °F39.2 °F48 %29.95 in6.2 miSE (140°)2.2 mphClear
3:00 AM59.0 °F41.0 °F51 %29.92 in6.2 miESE (110°)2.2 mphClear
4:00 AM57.2 °F39.2 °F51 %29.92 in5.6 miESE (120°)4.5 mphClear
5:00 AM58.0 °F42.0 °F43 %29.93 in6.0 miSouth (170°)6.7 mph
5:00 AM57.2 °F39.2 °F51 %29.92 in6.2 miSouth (180°)6.7 mphClear
6:00 AM57.2 °F39.2 °F51 %29.92 in6.2 miSouth (170°)4.5 mphClear
7:00 AM57.2 °F35.6 °F44 %29.92 in6.2 miSouth (180°)4.5 mphClear
8:00 AM58.0 °F39.0 °F38 %29.94 in6.0 miSSE (150°)6.7 mph
8:00 AM59.0 °F37.4 °F45 %29.92 in6.2 miSSE (150°)6.7 mphClear
9:00 AM71.6 °F35.6 °F27 %29.92 in5.6 miSouth (170°)4.5 mphClear
10:00 AM80.6 °F28.4 °F15 %29.92 in6.2 miESE (110°)6.7 mphClear
11:00 AM83.0 °F38.0 °F11 %29.90 in6.0 miEast (90°)8.9 mph
11:00 AM82.4 °F33.8 °F17 %29.89 in6.2 miEast (90°)6.7 mphClear
12:00 PM84.2 °F33.8 °F16 %29.89 in6.2 miEast (90°)8.9 mphClear
1:00 PM87.8 °F32.0 °F14 %29.86 in6.2 miENE (70°)8.9 mphClear
2:00 PM90.0 °F35.0 °F7 %29.83 in6.0 miEast (90°)13.4 mph
2:00 PM91.4 °F30.2 °F11 %29.83 in6.2 miEast (100°)11.2 mphClear
3:00 PM91.4 °F32.0 °F12 %29.83 in6.2 miESE (120°)8.9 mphClear
4:00 PM93.2 °F28.4 °F10 %29.83 in6.2 miESE (110°)8.9 mphClear
5:00 PM92.0 °F35.0 °F7 %29.79 in6.0 miEast (90°)8.9 mph
5:00 PM91.4 °F30.2 °F11 %29.80 in6.2 miEast (100°)11.2 mphClear
6:00 PM87.8 °F32.0 °F14 %29.83 in6.2 miEast (100°)8.9 mphClear
7:00 PM80.6 °F35.6 °F20 %29.83 in6.2 miESE (110°)6.7 mphClear
8:00 PM77.0 °F35.6 °F22 %29.83 in6.2 miESE (110°)4.5 mphClear
8:00 PM77.0 °F46.0 °F22 %29.82 in6.0 miESE (110°)4.5 mph
9:00 PM73.4 °F37.4 °F27 %29.83 in5.6 miVariable2.2 mphClear
10:00 PM69.8 °F41.0 °F35 %29.83 in4.3 miSSE (160°)4.5 mphClear
10:30 PM66.2 °F41.0 °F40 %29.83 in3.1 miSSE (160°)4.5 mphHaze
11:00 PM68.0 °F44.0 °F30 %29.84 in6.0 miSE (130°)4.5 mph
11:00 PM69.8 °F37.4 °F31 %29.83 in3.1 miVariable2.2 mphHaze
11:30 PM68.0 °F37.4 °F33 %29.83 in3.1 miSouth (190°)4.5 mphHaze
Hourly data recorded from UTAA, located 2.19 miles away from Ashgabat, Turkmenistan







STORIES FROM OUR PARTNERS